{"data":{"norad_id":63310,"epoch":"2026-09-20T03:01:51.804192Z","epoch_age_seconds":191156,"freshness":"STALE","line1":"1 63310U 25057D   26263.12629403  .00073833  00000+0  57215-3 0  9994","line2":"2 63310  42.9992 172.8711 0002109  24.7367 335.3602 15.70907292 87759","mean_motion":15.70907292,"eccentricity":0.0002109,"inclination_deg":42.9992,"raan_deg":172.8711,"arg_perigee_deg":24.7367,"mean_anomaly_deg":335.3602,"bstar":0.00057215,"rev_number":8775,"period_min":91.666771637852,"perigee_km":354.88244196422,"apogee_km":357.72302864457,"semimajor_km":6734.4397353044,"source":"CELESTRAK","updated_at":"2026-09-21T09:00:34.967523Z"}}